Tracking 19415 objects as of 16-Dec-2018
HD Live streaming from Space Station
objects crossing your sky now

CSUNSAT1

Track CSUNSAT1 now!
10-day predictions
CSUNSAT1 is classified as:


NORAD ID: 42715
Int'l Code: 1998-067LW
Perigee: 337.3 km
Apogee: 341.9 km
Inclination: 51.6 °
Period: 91.2 minutes
Semi major axis: 6710 km
RCS: Unknown
Launch date: November 20, 1998
Source: United States (US)
Launch site: TYURATAM MISSILE AND SPACE COMPLEX (TTMTR)

Uplink (MHz):
Downlink (MHz): 437.400
Beacon (MHz): 437.400
Mode: 9600bps GMSK CW
Call sign: CSUNSAT1
Status: Inactive

aabbcc
Your satellite tracking list
Your tracking list is empty




NASA's NSSDC Master Catalog

Two Line Element Set (TLE):
1 42715U 98067LW  18349.91153772 +.00044563 +00000-0 +24474-3 0  9995
2 42715 051.6322 146.7262 0003355 174.1543 185.9498 15.79286866090145
Source of the keplerian elements: AFSPC